User: anonymous   Login
Location: York
(31.8935°S, 116.7682°E)
Time: 13:26:18
(UTC+08:00)
Language:

PCSat - Orbit

View from above orbital plane
View from above orbital plane
View from above satellite
View from above satellite

Ground track
Ground track

The orbit data is extracted from the following two-line orbital elements,

1 26931U 01043C   21210.33377179 -.00000020  00000-0  24273-4 0  9990
2 26931  67.0504 172.3525 0005947 262.6582  97.3844 14.30626425 35181
Epoch (UTC): 29 July 2021 08:00:37
Eccentricity: 0.0005947
inclination: 67.0504°
perigee height: 785 km
apogee height: 794 km
right ascension of ascending node: 172.3525°
argument of perigee: 262.6582°
revolutions per day: 14.30626425
mean anomaly at epoch: 97.3844°
orbit number at epoch: 3518

The dashed part of the orbit path shows where the satellite is in the earth's shadow,  

DLR